Flag for India Weather past 2 weeks in Ganganagar, Rajasthan, India

Now
84 °F

Scattered clouds.


Feels Like: 86 °F
Forecast: 74 / 94 °F
Wind: 8 mph from North

Location: Lahore Airport

Current Time: Oct 24, 2014 at 5:39:00 PM

Latest Report: Oct 24, 2014 at 5:00 PM


Visibility: 3 mi

Pressure: 29.89 "Hg

Humidity: 51%

Dew point: 64 °F

Location of GanganagarLocation

Historic Weather in Ganganagar — Graph

°F

Ganganagar temperature yesterday

Maximum temperature yesterday: 91 °F (at 2:29 PM)
Minimum temperature yesterday: 66 °F (at 6:55 AM)
Average temperature yesterday: 79 °F

Past Weeks' High & Low Weather Summary

 TemperatureHumidityPressure
High93 °F (Oct 11, 3:55 PM)94% (Oct 18, 6:25 AM)30.09 "Hg (Oct 18, 6:25 AM)
Low61 °F (Oct 15, 6:25 AM)28% (Oct 12, 4:25 PM)29.65 "Hg (Oct 15, 12:55 AM)
Average77 °F58%29.94 "Hg
* Reported Oct 9 3:55 PM — Oct 24 3:55 PM, Ganganagar, Weather by CustomWeather, © 2014

Note: Actual official high and low records may vary slightly from our data, if they occured in-between our weather recording intervals... More about our weather records

Advertising

Ganganagar weather history for previous 24 hours

 ConditionsComfort  
Time TempWeatherWind HumidityBarometerVisibility
3:55 PM
Oct 24
86 °FPassing clouds.7 mph49%29.89 "Hg3 mi
3:30 PM86 °FClear.6 mph49%29.89 "Hg3 mi
3:00 PM84 °FClear.7 mph51%29.92 "Hg3 mi
1:59 PM82 °FClear.8 mph51%29.92 "Hg3 mi
1:29 PM82 °FPassing clouds.9 mph51%29.95 "Hg2 mi
12:29 PM81 °FScattered clouds.9 mph58%29.98 "Hg2 mi
11:59 AM81 °FPassing clouds.12 mph58%29.98 "Hg2 mi
10:55 AM77 °FScattered clouds.5 mph65%29.98 "Hg2 mi
9:59 AM73 °FScattered clouds.5 mph69%29.98 "Hg2 mi
9:30 AM72 °FScattered clouds.6 mph73%29.98 "Hg2 mi
9:00 AM70 °FScattered clouds.3 mph73%29.98 "Hg2 mi
8:25 AM70 °FScattered clouds.No wind73%29.98 "Hg2 mi
7:55 AM70 °FScattered clouds.5 mph73%29.98 "Hg2 mi
7:29 AM68 °FSleet. Cloudy.N/A78%29.98 "HgN/A
6:55 AM66 °FScattered clouds.3 mph88%29.95 "Hg2 mi
6:25 AM66 °FPassing clouds.No wind88%29.95 "Hg2 mi
5:55 AM68 °FClear.No wind83%29.95 "Hg2 mi
5:30 AM68 °FClear.5 mph83%29.95 "Hg2 mi
4:55 AM70 °FClear.5 mph78%29.92 "Hg2 mi
4:25 AM70 °FClear.7 mph78%29.92 "Hg2 mi
3:55 AM70 °FClear.12 mph78%29.92 "Hg2 mi
3:25 AM72 °FClear.3 mph73%29.92 "Hg2 mi
2:55 AM72 °FClear.3 mph73%29.92 "Hg2 mi
2:25 AM72 °FClear.3 mph73%29.95 "Hg2 mi
1:55 AM72 °FClear.No wind73%29.95 "Hg2 mi
1:25 AM73 °FClear.3 mph69%29.95 "Hg2 mi
12:55 AM75 °FClear.No wind69%29.95 "Hg2 mi
12:25 AM75 °FClear.No wind69%29.92 "Hg2 mi
11:55 PM
Oct 23
77 °FClear.No wind61%29.95 "Hg2 mi
11:25 PM77 °FClear.No wind61%29.92 "Hg2 mi
10:55 PM77 °FClear.No wind61%29.92 "Hg2 mi
10:25 PM77 °FClear.No wind61%29.92 "Hg2 mi
9:25 PM82 °FClear.3 mph48%29.92 "Hg2 mi
8:55 PM82 °FHaze.3 mph48%29.92 "Hg3 mi
8:25 PM82 °FHaze.No wind48%29.92 "Hg3 mi
7:55 PM84 °FHaze.No wind45%29.89 "Hg3 mi
7:25 PM84 °FHaze.No wind45%29.89 "Hg3 mi
6:55 PM84 °FHaze.No wind45%29.89 "Hg3 mi
6:25 PM86 °FHaze.N/A43%29.89 "Hg3 mi
5:55 PM88 °FHaze.5 mph40%29.89 "Hg3 mi
Weather by CustomWeather, © 2014

See weather overviewHow to use our weather pages